RYR9RA EBCI-LKPR

Flight info

Callsign RYR9RA
Flight time 1h 8m
Altitude 35000
Route SOPOK Y863 OGLOR DCT EMGOD DCT BOMBI DCT BOREP DCT TONSU Z35 ODOMO DCT LOMKI
Aircraft B738/M-SDE3FGILRWY/SB1

Departure

Time 2026-05-06 19:28
Airport Brussels South Charleroi Airport (EBCI)

Arrival

Time 2026-05-06 20:37
Airport Václav Havel Airport Prague (LKPR)
Time Latitude Longitude Altitude Speed Heading
2026-05-06 18:58 50.46047 4.46286 626 ft 0 kts 155°
2026-05-06 19:18 50.46059 4.46277 631 ft 3 kts 137°
2026-05-06 19:18 50.46069 4.46252 626 ft 3 kts 114°
2026-05-06 19:19 50.46075 4.46234 631 ft 1 kts 122°
2026-05-06 19:19 50.46077 4.46230 631 ft 0 kts 122°
2026-05-06 19:24 50.46076 4.46232 617 ft 1 kts 114°
2026-05-06 19:24 50.46086 4.46263 626 ft 4 kts 34°
2026-05-06 19:25 50.46119 4.46265 621 ft 5 kts 350°
2026-05-06 19:25 50.46146 4.46250 623 ft 0 kts 337°
2026-05-06 19:27 50.46150 4.46247 621 ft 2 kts 337°
2026-05-06 19:27 50.46173 4.46232 624 ft 5 kts 337°
2026-05-06 19:27 50.46211 4.46207 623 ft 7 kts 336°
2026-05-06 19:27 50.46225 4.46138 619 ft 7 kts 258°
2026-05-06 19:28 50.46206 4.46061 626 ft 11 kts 248°
2026-05-06 19:28 50.46044 4.45490 624 ft 105 kts 246°
2026-05-06 19:28 50.45619 4.44048 677 ft 180 kts 245°
2026-05-06 19:28 50.45053 4.42217 1714 ft 185 kts 245°
2026-05-06 19:29 50.44473 4.40332 2750 ft 205 kts 249°
2026-05-06 19:29 50.43867 4.38132 3428 ft 229 kts 249°
2026-05-06 19:29 50.43218 4.35825 4522 ft 233 kts 248°
2026-05-06 19:29 50.42549 4.33496 5701 ft 235 kts 248°
2026-05-06 19:30 50.41706 4.31249 6711 ft 253 kts 226°
2026-05-06 19:30 50.40086 4.29908 7461 ft 278 kts 189°
2026-05-06 19:30 50.38152 4.30228 8538 ft 287 kts 158°
2026-05-06 19:30 50.36480 4.31921 9731 ft 290 kts 133°
2026-05-06 19:31 50.35409 4.34615 10591 ft 302 kts 108°
2026-05-06 19:31 50.34931 4.37976 10957 ft 331 kts 96°
2026-05-06 19:31 50.34535 4.45391 12780 ft 348 kts 93°
2026-05-06 19:32 50.34361 4.49199 13784 ft 353 kts 93°
2026-05-06 19:32 50.34165 4.53066 14604 ft 359 kts 94°
2026-05-06 19:32 50.33943 4.56988 15469 ft 364 kts 95°
2026-05-06 19:32 50.33702 4.60951 16334 ft 368 kts 95°
2026-05-06 19:33 50.33444 4.64970 17110 ft 374 kts 95°
2026-05-06 19:33 50.33175 4.69048 17892 ft 380 kts 96°
2026-05-06 19:33 50.32896 4.73183 18614 ft 384 kts 96°
2026-05-06 19:33 50.32611 4.77352 19328 ft 386 kts 96°
2026-05-06 19:34 50.32322 4.81544 20033 ft 389 kts 96°
2026-05-06 19:34 50.32030 4.85765 20699 ft 392 kts 96°
2026-05-06 19:34 50.31733 4.90024 21326 ft 396 kts 96°
2026-05-06 19:34 50.31433 4.94303 22070 ft 395 kts 96°
2026-05-06 19:35 50.31140 4.98590 22727 ft 398 kts 95°
2026-05-06 19:35 50.30898 5.02917 23293 ft 401 kts 94°
2026-05-06 19:35 50.30682 5.07290 23820 ft 404 kts 95°
2026-05-06 19:35 50.30473 5.11687 24176 ft 411 kts 95°
2026-05-06 19:36 50.30256 5.16183 24593 ft 414 kts 95°
2026-05-06 19:36 50.30034 5.20672 25124 ft 415 kts 95°
2026-05-06 19:36 50.29807 5.25170 25623 ft 416 kts 95°
2026-05-06 19:36 50.29573 5.29687 26050 ft 419 kts 95°
2026-05-06 19:37 50.29333 5.34245 26468 ft 421 kts 95°
2026-05-06 19:37 50.29089 5.38817 26888 ft 423 kts 95°
2026-05-06 19:37 50.28845 5.43356 27297 ft 425 kts 95°
2026-05-06 19:37 50.28676 5.46469 27566 ft 427 kts 96°
2026-05-06 19:38 50.28340 5.52620 28054 ft 430 kts 96°
2026-05-06 19:38 50.28083 5.57293 28321 ft 435 kts 96°
2026-05-06 19:38 50.27820 5.62026 28639 ft 438 kts 96°
2026-05-06 19:38 50.27555 5.66772 29054 ft 438 kts 96°
2026-05-06 19:39 50.27288 5.71514 29450 ft 439 kts 96°
2026-05-06 19:39 50.27019 5.76267 29884 ft 438 kts 96°
2026-05-06 19:39 50.26749 5.81002 30311 ft 437 kts 96°
2026-05-06 19:39 50.26478 5.85724 30673 ft 436 kts 96°
2026-05-06 19:40 50.26204 5.90455 30974 ft 437 kts 96°
2026-05-06 19:40 50.25928 5.95181 31292 ft 438 kts 96°
2026-05-06 19:40 50.25650 5.99918 31644 ft 437 kts 96°
2026-05-06 19:40 50.25370 6.04642 31992 ft 437 kts 97°
2026-05-06 19:41 50.25089 6.09368 32291 ft 437 kts 97°
2026-05-06 19:41 50.24805 6.14093 32630 ft 436 kts 97°
2026-05-06 19:41 50.24520 6.18809 32962 ft 436 kts 97°
2026-05-06 19:41 50.24234 6.23524 33275 ft 436 kts 97°
2026-05-06 19:42 50.23945 6.28241 33586 ft 436 kts 97°
2026-05-06 19:42 50.23655 6.32947 33894 ft 436 kts 97°
2026-05-06 19:42 50.23363 6.37661 34138 ft 436 kts 97°
2026-05-06 19:42 50.23068 6.42376 34349 ft 437 kts 97°
2026-05-06 19:43 50.22771 6.47103 34545 ft 437 kts 97°
2026-05-06 19:43 50.22472 6.51822 34783 ft 437 kts 97°
2026-05-06 19:43 50.21860 6.61382 34859 ft 448 kts 97°
2026-05-06 19:44 50.21225 6.71174 34869 ft 459 kts 97°
2026-05-06 19:44 50.20566 6.81199 34869 ft 469 kts 97°
2026-05-06 19:45 50.19888 6.91412 34855 ft 476 kts 98°
2026-05-06 19:45 50.19192 7.01744 34862 ft 481 kts 98°
2026-05-06 19:46 50.18596 7.12171 34855 ft 484 kts 95°
2026-05-06 19:46 50.18268 7.22692 34858 ft 486 kts 94°
2026-05-06 19:47 50.17954 7.33203 34847 ft 481 kts 95°
2026-05-06 19:47 50.17598 7.43489 34848 ft 470 kts 96°
2026-05-06 19:48 50.17207 7.53727 34864 ft 476 kts 96°
2026-05-06 19:48 50.16811 7.63821 34834 ft 451 kts 96°
2026-05-06 19:49 50.16624 7.68558 34844 ft 440 kts 96°
2026-05-06 19:49 50.16494 7.71782 34861 ft 443 kts 96°
2026-05-06 19:49 50.16022 7.83174 34852 ft 457 kts 96°
2026-05-06 19:50 50.15675 7.91441 34849 ft 460 kts 96°
2026-05-06 19:50 50.15254 8.01400 34846 ft 461 kts 96°
2026-05-06 19:51 50.14822 8.11389 34845 ft 462 kts 97°
2026-05-06 19:51 50.14383 8.21365 34839 ft 461 kts 97°
2026-05-06 19:52 50.13935 8.31318 34831 ft 460 kts 97°
2026-05-06 19:52 50.13480 8.41249 34839 ft 459 kts 97°
2026-05-06 19:53 50.13017 8.51141 34860 ft 458 kts 97°
2026-05-06 19:53 50.12546 8.61027 34850 ft 457 kts 98°
2026-05-06 19:54 50.12068 8.70893 34855 ft 456 kts 98°
2026-05-06 19:54 50.11649 8.80754 34845 ft 457 kts 96°
2026-05-06 19:55 50.11313 8.90646 34844 ft 457 kts 96°
2026-05-06 19:55 50.10971 9.00521 34838 ft 457 kts 96°
2026-05-06 19:56 50.10607 9.10391 34838 ft 457 kts 97°
2026-05-06 19:56 50.10227 9.20273 34802 ft 457 kts 97°
2026-05-06 19:57 50.09837 9.30163 34822 ft 457 kts 98°
2026-05-06 19:57 50.09440 9.39996 34809 ft 458 kts 98°
2026-05-06 19:58 50.09033 9.49889 34822 ft 458 kts 98°
2026-05-06 19:58 50.08629 9.59642 34791 ft 441 kts 98°
2026-05-06 19:59 50.08226 9.69113 34814 ft 439 kts 98°
2026-05-06 19:59 50.07805 9.78644 34811 ft 443 kts 98°
2026-05-06 20:00 50.07375 9.88258 34811 ft 447 kts 99°
2026-05-06 20:00 50.06937 9.97923 34810 ft 448 kts 99°
2026-05-06 20:01 50.06494 10.07564 34795 ft 443 kts 99°
2026-05-06 20:01 50.06052 10.17057 34804 ft 440 kts 99°
2026-05-06 20:02 50.05594 10.26579 34811 ft 442 kts 99°
2026-05-06 20:02 50.05128 10.36143 34801 ft 444 kts 99°
2026-05-06 20:03 50.04654 10.45732 34803 ft 445 kts 99°
2026-05-06 20:03 50.04170 10.55352 34776 ft 446 kts 99°
2026-05-06 20:04 50.03680 10.64959 34794 ft 446 kts 99°
2026-05-06 20:04 50.03180 10.74594 34800 ft 446 kts 99°
2026-05-06 20:05 50.02672 10.84210 34804 ft 446 kts 99°
2026-05-06 20:05 50.02159 10.93801 34771 ft 440 kts 99°
2026-05-06 20:06 50.01906 10.98516 34443 ft 435 kts 100°
2026-05-06 20:06 50.01654 11.03162 34101 ft 429 kts 100°
2026-05-06 20:06 50.01401 11.07765 33734 ft 426 kts 101°
2026-05-06 20:06 50.01148 11.12336 33312 ft 423 kts 101°
2026-05-06 20:07 50.00894 11.16873 32922 ft 419 kts 101°
2026-05-06 20:07 50.00642 11.21353 32552 ft 415 kts 101°
2026-05-06 20:07 50.00390 11.25801 32197 ft 411 kts 101°
2026-05-06 20:07 50.00143 11.30141 31835 ft 407 kts 101°
2026-05-06 20:08 49.99893 11.34500 31480 ft 403 kts 102°
2026-05-06 20:08 49.99643 11.38820 31126 ft 399 kts 102°
2026-05-06 20:08 49.99394 11.43098 30770 ft 396 kts 102°
2026-05-06 20:08 49.99146 11.47335 30405 ft 392 kts 102°
2026-05-06 20:09 49.98898 11.51538 30068 ft 389 kts 102°
2026-05-06 20:09 49.98651 11.55705 29717 ft 386 kts 102°
2026-05-06 20:09 49.98404 11.59839 29342 ft 382 kts 102°
2026-05-06 20:09 49.98159 11.63927 28993 ft 378 kts 102°
2026-05-06 20:10 49.97915 11.67978 28634 ft 374 kts 102°
2026-05-06 20:10 49.97672 11.71981 28291 ft 371 kts 102°
2026-05-06 20:10 49.97429 11.75954 27939 ft 368 kts 101°
2026-05-06 20:10 49.97187 11.79889 27580 ft 364 kts 101°
2026-05-06 20:11 49.96946 11.83790 27237 ft 361 kts 101°
2026-05-06 20:11 49.96706 11.87653 26912 ft 357 kts 101°
2026-05-06 20:11 49.96467 11.91482 26537 ft 355 kts 101°
2026-05-06 20:11 49.96226 11.95298 26209 ft 355 kts 100°
2026-05-06 20:12 49.95985 11.99103 25883 ft 354 kts 100°
2026-05-06 20:12 49.95743 12.02910 25556 ft 357 kts 100°
2026-05-06 20:12 49.95493 12.06797 25269 ft 367 kts 99°
2026-05-06 20:12 49.95237 12.10766 24916 ft 370 kts 99°
2026-05-06 20:13 49.94982 12.14737 24550 ft 368 kts 99°
2026-05-06 20:13 49.94729 12.18683 24223 ft 366 kts 99°
2026-05-06 20:13 49.94475 12.22604 23874 ft 364 kts 99°
2026-05-06 20:13 49.94221 12.26509 23534 ft 362 kts 99°
2026-05-06 20:14 49.93966 12.30390 23167 ft 361 kts 98°
2026-05-06 20:14 49.93712 12.34253 22775 ft 359 kts 98°
2026-05-06 20:14 49.93540 12.38106 22459 ft 356 kts 96°
2026-05-06 20:14 49.93431 12.41927 22113 ft 354 kts 95°
2026-05-06 20:15 49.93339 12.45725 21778 ft 351 kts 95°
2026-05-06 20:15 49.93247 12.49498 21448 ft 349 kts 95°
2026-05-06 20:15 49.93153 12.53194 21120 ft 346 kts 95°
2026-05-06 20:15 49.93052 12.56911 20790 ft 344 kts 95°
2026-05-06 20:16 49.92947 12.60612 20465 ft 342 kts 95°
2026-05-06 20:16 49.92841 12.64278 20139 ft 340 kts 95°
2026-05-06 20:16 49.92732 12.67931 19819 ft 338 kts 95°
2026-05-06 20:16 49.92622 12.71562 19501 ft 336 kts 95°
2026-05-06 20:17 49.92512 12.75173 19187 ft 334 kts 95°
2026-05-06 20:17 49.92401 12.78764 18869 ft 333 kts 95°
2026-05-06 20:17 49.92289 12.82337 18534 ft 331 kts 95°
2026-05-06 20:17 49.92176 12.85898 18228 ft 330 kts 95°
2026-05-06 20:18 49.92063 12.89442 17899 ft 328 kts 95°
2026-05-06 20:18 49.91949 12.92970 17545 ft 327 kts 95°
2026-05-06 20:18 49.91835 12.96481 17217 ft 324 kts 95°
2026-05-06 20:18 49.91721 12.99961 16909 ft 322 kts 95°
2026-05-06 20:19 49.91606 13.03418 16596 ft 320 kts 96°
2026-05-06 20:19 49.91492 13.06852 16275 ft 318 kts 96°
2026-05-06 20:19 49.91376 13.10274 15973 ft 316 kts 96°
2026-05-06 20:19 49.91261 13.13664 15681 ft 315 kts 96°
2026-05-06 20:20 49.91146 13.17045 15382 ft 313 kts 96°
2026-05-06 20:20 49.91029 13.20416 15080 ft 311 kts 96°
2026-05-06 20:20 49.90912 13.23761 14778 ft 310 kts 96°
2026-05-06 20:20 49.90797 13.27091 14486 ft 309 kts 95°
2026-05-06 20:21 49.91027 13.30395 14158 ft 313 kts 73°
2026-05-06 20:21 49.92113 13.33296 13867 ft 313 kts 47°
2026-05-06 20:21 49.93865 13.35234 13628 ft 308 kts 22°
2026-05-06 20:21 49.95854 13.36320 13524 ft 299 kts 16°
2026-05-06 20:22 49.97834 13.37247 13318 ft 299 kts 15°
2026-05-06 20:22 49.99864 13.38183 13078 ft 310 kts 18°
2026-05-06 20:22 50.01770 13.39813 12798 ft 317 kts 39°
2026-05-06 20:22 50.03416 13.42102 12559 ft 317 kts 44°
2026-05-06 20:23 50.04986 13.44439 12277 ft 307 kts 44°
2026-05-06 20:23 50.06498 13.46716 12003 ft 298 kts 44°
2026-05-06 20:23 50.07961 13.48928 11724 ft 289 kts 44°
2026-05-06 20:23 50.09381 13.51080 11467 ft 282 kts 44°
2026-05-06 20:24 50.10785 13.53221 11225 ft 282 kts 45°
2026-05-06 20:24 50.12184 13.55361 10982 ft 281 kts 44°
2026-05-06 20:24 50.13573 13.57493 10728 ft 280 kts 45°
2026-05-06 20:24 50.14960 13.59625 10437 ft 281 kts 45°
2026-05-06 20:25 50.16353 13.61772 10062 ft 281 kts 45°
2026-05-06 20:25 50.17727 13.63895 9832 ft 272 kts 45°
2026-05-06 20:25 50.19032 13.65912 9733 ft 258 kts 45°
2026-05-06 20:25 50.20277 13.67856 9532 ft 249 kts 48°
2026-05-06 20:26 50.21160 13.70137 9154 ft 245 kts 73°
2026-05-06 20:26 50.21672 13.72643 8869 ft 240 kts 75°
2026-05-06 20:26 50.22172 13.75158 8828 ft 245 kts 75°
2026-05-06 20:26 50.22676 13.77714 8783 ft 247 kts 75°
2026-05-06 20:27 50.23175 13.80258 8771 ft 243 kts 75°
2026-05-06 20:27 50.23669 13.82776 8767 ft 242 kts 75°
2026-05-06 20:27 50.24161 13.85289 8778 ft 243 kts 75°
2026-05-06 20:27 50.24655 13.87817 8784 ft 243 kts 75°
2026-05-06 20:28 50.25149 13.90349 8785 ft 244 kts 75°
2026-05-06 20:28 50.25646 13.92891 8773 ft 245 kts 75°
2026-05-06 20:28 50.26136 13.95373 8707 ft 242 kts 75°
2026-05-06 20:28 50.26629 13.97863 8459 ft 239 kts 75°
2026-05-06 20:29 50.27119 14.00341 8071 ft 239 kts 75°
2026-05-06 20:29 50.27646 14.02835 7743 ft 238 kts 65°
2026-05-06 20:29 50.28675 14.04775 7376 ft 238 kts 32°
2026-05-06 20:29 50.30209 14.05579 7050 ft 232 kts 358°
2026-05-06 20:30 50.31722 14.04970 6829 ft 224 kts 323°
2026-05-06 20:30 50.32912 14.00845 6785 ft 214 kts 256°
2026-05-06 20:30 50.32232 13.98864 6787 ft 208 kts 222°
2026-05-06 20:31 50.30935 13.97889 6782 ft 213 kts 188°
2026-05-06 20:31 50.29428 13.98179 6290 ft 235 kts 161°
2026-05-06 20:31 50.27895 13.99294 5578 ft 248 kts 155°
2026-05-06 20:31 50.26373 14.00489 5202 ft 239 kts 155°
2026-05-06 20:32 50.24919 14.01634 4885 ft 229 kts 154°
2026-05-06 20:32 50.23531 14.02718 4615 ft 217 kts 154°
2026-05-06 20:32 50.22210 14.03744 4348 ft 207 kts 154°
2026-05-06 20:32 50.20941 14.04713 4099 ft 198 kts 155°
2026-05-06 20:33 50.19845 14.05843 4054 ft 183 kts 129°
2026-05-06 20:33 50.19080 14.07471 3853 ft 191 kts 126°
2026-05-06 20:33 50.18282 14.09098 3626 ft 186 kts 127°
2026-05-06 20:33 50.17519 14.10657 3377 ft 177 kts 125°
2026-05-06 20:34 50.16790 14.12157 3172 ft 174 kts 126°
2026-05-06 20:34 50.16056 14.13669 2912 ft 173 kts 125°
2026-05-06 20:34 50.15342 14.15144 2680 ft 167 kts 125°
2026-05-06 20:34 50.14646 14.16583 2474 ft 167 kts 125°
2026-05-06 20:35 50.13944 14.18034 2242 ft 168 kts 124°
2026-05-06 20:35 50.13248 14.19472 2014 ft 164 kts 124°
2026-05-06 20:35 50.12576 14.20863 1799 ft 158 kts 126°
2026-05-06 20:35 50.12139 14.21767 1679 ft 157 kts 126°
2026-05-06 20:36 50.11488 14.23114 1460 ft 155 kts 126°
2026-05-06 20:36 50.10838 14.24471 1244 ft 157 kts 126°
2026-05-06 20:36 50.10230 14.25731 1186 ft 130 kts 127°
2026-05-06 20:36 50.09773 14.26665 1206 ft 87 kts 127°
2026-05-06 20:37 50.09448 14.27335 1207 ft 24 kts 128°
2026-05-06 20:37 50.09447 14.27449 1209 ft 17 kts 45°
2026-05-06 20:37 50.09524 14.27546 1212 ft 0 kts 37°
2026-05-06 20:38 50.09534 14.27558 1212 ft 7 kts 37°
2026-05-06 20:39 50.09607 14.27629 1210 ft 16 kts 15°
2026-05-06 20:39 50.09725 14.27511 1205 ft 23 kts 314°
2026-05-06 20:39 50.09824 14.27352 1203 ft 21 kts 314°
2026-05-06 20:39 50.09925 14.27177 1199 ft 22 kts 306°
2026-05-06 20:40 50.10019 14.26970 1194 ft 25 kts 305°
2026-05-06 20:40 50.10117 14.26764 1182 ft 19 kts 307°
2026-05-06 20:40 50.10207 14.26584 1177 ft 22 kts 307°
2026-05-06 20:40 50.10299 14.26395 1171 ft 12 kts 307°
2026-05-06 20:41 50.10354 14.26281 1172 ft 14 kts 307°
2026-05-06 20:41 50.10414 14.26151 1173 ft 15 kts 306°
2026-05-06 20:41 50.10476 14.26019 1173 ft 13 kts 310°
2026-05-06 20:41 50.10522 14.25926 1174 ft 8 kts 306°
2026-05-06 20:42 50.10556 14.25852 1173 ft 9 kts 304°
2026-05-06 20:42 50.10609 14.25807 1174 ft 10 kts
2026-05-06 20:42 50.10671 14.25866 1170 ft 11 kts 28°
2026-05-06 20:42 50.10741 14.25934 1171 ft 12 kts 33°
2026-05-06 20:43 50.10762 14.25943 1171 ft 3 kts 351°
2026-05-06 20:43 50.10787 14.25910 1171 ft 0 kts 310°
2026-05-06 20:43 50.10798 14.25886 1171 ft 5 kts 306°
2026-05-06 20:43 50.10807 14.25866 1168 ft 0 kts 304°